EDT,Max TemperatureF,Mean TemperatureF,Min TemperatureF,Max Dew PointF,MeanDew PointF,Min DewpointF,Max Humidity, Mean Humidity, Min Humidity, Max Sea Level PressureIn, Mean Sea Level PressureIn, Min Sea Level PressureIn, Max VisibilityMiles, Mean VisibilityMiles, Min VisibilityMiles, Max Wind SpeedMPH, Mean Wind SpeedMPH, Max Gust SpeedMPH,PrecipitationIn, CloudCover, Events, WindDirDegrees
2013-4-1,75,64,53,56,41,31,94,52,21,29.98,29.90,29.84,10,10,10,18,7,29,0.02,3,Rain,306
2013-4-2,71,58,46,32,27,19,56,32,15,30.15,30.06,29.98,10,10,10,16,7,21,0.00,2,,312
2013-4-3,60,54,48,28,22,15,36,28,22,30.25,30.19,30.12,10,10,7,16,8,23,0.00,5,,70
2013-4-4,54,46,37,37,33,25,93,77,36,30.23,30.10,29.98,10,7,2,18,11,30,0.58,8,Rain-Snow,39
2013-4-5,68,52,37,41,36,21,93,66,17,30.06,29.99,29.93,10,10,10,12,6,,0.00,4,,15
2013-4-6,72,58,46,35,32,27,59,38,19,30.22,30.15,30.07,10,10,10,9,6,,0.00,0,,59
2013-4-7,73,59,46,46,41,35,71,51,34,30.24,30.17,30.11,10,10,10,15,7,16,0.00,0,,219
2013-4-8,79,65,55,53,50,45,83,58,37,30.17,30.12,30.07,10,10,10,13,4,21,0.00,3,,212
2013-4-9,84,68,55,55,52,49,84,55,33,30.20,30.14,30.10,10,10,10,13,4,16,0.00,1,,221
2013-4-10,84,72,61,58,55,53,81,56,35,30.12,30.05,29.95,10,10,10,12,6,18,0.00,0,,209
2013-4-11,82,70,60,66,59,54,90,74,47,29.99,29.89,29.73,10,10,6,18,5,24,0.06,5,Rain-Thunderstorm,203
2013-4-12,79,70,61,66,55,33,94,71,22,29.83,29.72,29.66,10,8,1,23,14,38,1.14,5,Rain-Thunderstorm,229
2013-4-13,78,62,46,41,37,34,76,41,21,30.01,29.94,29.86,10,10,10,9,2,,0.00,0,,103
2013-4-14,71,62,52,52,42,33,83,50,32,30.08,30.04,29.98,10,10,7,13,7,,0.02,3,Rain,68
2013-4-15,72,63,55,57,55,53,94,83,55,30.20,30.06,29.96,10,8,3,10,6,,0.22,8,Rain,45
2013-4-16,80,70,60,59,56,54,83,71,45,30.31,30.23,30.18,10,10,10,6,3,,0.00,7,,60
2013-4-17,84,72,63,63,60,57,93,74,45,30.24,30.18,30.12,10,9,5,18,4,23,0.31,4,Rain-Thunderstorm,10
2013-4-18,81,70,61,63,59,55,93,72,42,30.15,30.07,29.97,10,10,10,10,3,,0.00,5,,150
2013-4-19,73,62,51,64,59,47,94,84,69,29.96,29.85,29.78,10,9,1,21,12,30,0.60,7,Rain,207
2013-4-20,64,53,42,48,31,25,88,46,26,30.27,30.12,29.95,10,10,10,13,5,18,0.00,1,,4
2013-4-21,66,54,45,39,33,29,60,44,30,30.41,30.35,30.27,10,10,10,17,10,22,0.00,2,,47
2013-4-22,64,55,46,39,36,32,71,51,32,30.40,30.32,30.22,10,10,10,16,10,24,0.00,0,,49
2013-4-23,73,59,45,48,39,32,67,49,34,30.28,30.19,30.11,10,10,10,13,8,,0.00,0,,70
2013-4-24,75,62,51,59,53,48,90,72,48,30.14,30.10,30.03,10,10,8,17,8,26,0.00,4,Rain,217
2013-4-25,73,62,51,59,40,24,94,50,21,30.28,30.17,30.06,10,10,10,15,6,,0.00,3,,17
2013-4-26,73,62,52,42,32,27,46,33,24,30.42,30.34,30.29,10,10,10,14,9,24,0.00,0,,73
2013-4-27,63,58,54,55,52,41,94,83,46,30.36,30.32,30.25,10,8,3,8,5,,0.26,8,Rain,11
2013-4-28,55,53,51,54,51,48,94,93,86,30.25,30.16,30.06,10,6,2,13,6,20,1.50,8,Rain,31
2013-4-29,73,63,53,57,55,53,100,81,53,30.07,30.02,29.94,10,10,7,10,4,,0.07,6,Rain,252
2013-4-30,75,65,55,61,57,54,97,79,50,30.16,30.07,29.98,10,8,1,13,5,,0.01,3,,68